Hourly Data Report for November 16, 2019

All times are specified in Local Standard Time (LST). Add 1 hour to adjust for Daylight Saving Time where and when it is observed.

HOPE A
BRITISH COLUMBIA
Current Station Operator: NAVCAN

49°22'06.000" N
121°29'53.000" W
39.00 m
1113542
71187
YHE

Download Data

Hourly Data (November 2019)
Hourly Data Report for November 16, 2019
TIME Temp Definition
°C
Dew Point Definition
°C
Rel Hum Definition
%
Wind Dir Definition
10's deg

Wind Spd Definition
km/h
Visibility Definition
km
Stn Press Definition
kPa
Hmdx Definition


Wind Chill Definition


Weather Definition


00:00 8.5 8.2 98 LegendMM 4 16.1 102.02     Rain
01:00 8.0 7.9 99   0 14.5 102.07     Rain
02:00 8.0 7.9 99   0 11.3 102.11     LegendNANA
03:00 8.0 7.9 99   0 4.8 102.15     Rain,Fog
04:00 7.6 7.5 99   0 4.8 102.09     Rain,Fog
05:00 7.3 7.2 99 LegendMM 4 2.0 102.11     Fog
06:00 7.6 7.5 99   0 8.1 102.10     Rain,Fog
07:00 7.3 7.2 99   0 16.1 102.12     LegendNANA
08:00 7.6 7.3 98 LegendMM 9 16.1 102.14     Rain
09:00 8.0 7.6 97   0 16.1 102.11     LegendNANA
10:00 8.3 7.4 94 10 8 16.1 102.08     LegendNANA
11:00 8.8 7.6 92 11 5 16.1 102.06     Rain
12:00 9.2 8.0 92 27 8 16.1 102.00     LegendNANA
13:00 9.6 8.7 94 24 5 16.1 101.94     Rain
14:00 9.6 8.7 94 25 9 16.1 101.85     Rain
15:00 9.5 8.7 95 24 9 16.1 101.85     Rain
16:00 9.0 8.6 97 27 4 14.5 101.78     Rain
17:00 8.4 8.1 98 LegendMM 4 8.1 101.73     Fog
18:00 9.0 8.7 98 22 9 8.1 101.76     Rain,Fog
19:00 9.0 8.3 95 23 13 16.1 101.68     Rain
20:00 8.9 8.3 96 24 15 14.5 101.59     Rain
21:00 9.1 8.2 94 23 13 12.9 101.56     Rain
22:00 9.0 8.4 96 24 11 12.9 101.56     Rain
23:00 9.0 8.4 96 25 13 16.1 101.53     Rain

Notes on Data Quality.

Legend

  • E = Estimated
  • M = Missing
  • NA = Not Available
Date modified: